Hourly Data Report for March 05, 2018

MIRAMICHI RCS
NEW BRUNSWICK

47°00'34.000" N
65°27'54.000" W
33.00 m
8100989
71744
ACQ

Download Data

Hourly Data (March 2018)
Hourly Data Report for March 5, 2018
TIME
LST
Temp Definition
°C
Dew Point Definition
°C
Rel Hum Definition
%
Precip. Amount Definition
mm

Wind Dir Definition
10's deg

Wind Spd Definition
km/h
Visibility Definition
km
Stn Press Definition
kPa
Hmdx Definition


Wind Chill Definition


Weather Definition


00:00 -0.8 -2.8 86 0.0 4 15   101.76   -5 LegendNANA
01:00 -0.8 -2.9 86 0.0 4 19   101.73   -6 LegendNANA
02:00 -0.8 -2.9 86 0.0 4 19   101.71   -6 LegendNANA
03:00 -0.8 -2.9 86 0.0 4 20   101.68   -6 LegendNANA
04:00 -0.8 -2.9 86 0.0 4 21   101.66   -6 LegendNANA
05:00 -0.9 -2.9 86 0.0 3 19   101.66   -6 LegendNANA
06:00 -0.9 -3.1 85 0.0 3 21   101.68   -7 LegendNANA
07:00 -0.9 -3.3 84 0.0 3 21   101.70   -7 LegendNANA
08:00 -1.1 -3.0 87 0.0 4 22   101.75   -7 LegendNANA
09:00 -1.0 -3.1 85 0.0 5 23   101.77   -7 LegendNANA
10:00 -0.5 -3.6 79 0.0 5 29   101.78   -7 LegendNANA
11:00 -0.2 -3.9 76 0.0 5 30   101.79   -7 LegendNANA
12:00 0.0 -4.0 74 0.0 6 33   101.80   -7 LegendNANA
13:00 0.3 -3.7 75 0.0 6 32   101.78     LegendNANA
14:00 0.5 -3.6 74 0.2 5 25   101.75     LegendNANA
15:00 -0.3 -3.3 80 0.2 5 29   101.74   -7 LegendNANA
16:00 -0.1 -4.0 75 0.2 5 27   101.73   -6 LegendNANA
17:00 -0.6 -4.2 77 0.0 4 26   101.76   -7 LegendNANA
18:00 -1.1 -4.0 81 0.0 4 23   101.78   -7 LegendNANA
19:00 -1.1 -4.3 79 0.0 4 22   101.81   -7 LegendNANA
20:00 -1.2 -4.1 81 0.0 3 24   101.75   -7 LegendNANA
21:00 -1.0 -3.7 82 0.0 3 20   101.71   -7 LegendNANA
22:00 -0.5 -4.6 74 0.0 5 26   101.69   -7 LegendNANA
23:00 -0.6 -4.5 75 0.0 4 27   101.64   -7 LegendNANA

Notes on Data Quality.

Legend

  • E = Estimated
  • M = Missing
  • NA = Not Available*
  • [empty] = Indicates an unobserved value
Date modified: